Regional Weather Roundup
Issued by NWS Sterling, VA

Home | Current Version | Previous Version | Graphics & Text | Print | Product List | Glossary On
Versions: 1 2 3 4 5 6 7 8 9 10 11 12 13 14 15 16 17 18 19 20 21 22 23 24 25 26 27 28 29 30 31 32 33 34 35 36 37 38 39 40 41 42 43 44 45 46 47 48 49 50
000
ASUS41 KLWX 261511
RWRLWX

REGIONAL WEATHER ROUNDUP
NATIONAL WEATHER SERVICE BALTIMORE MD/WASHINGTON DC
1100 AM EDT WED JUL 26 2017

Note: "FAIR" indicates few or no clouds below 12,000 feet
with no significant weather and/or obstructions to visibility.
 TC=TEMPERATURE CELSIUS

 * =Non NWS site. Station does not report precipitation (e.g. rain,
    snow, etc.), thunder, or fog.

DCZ001-MDZ009-015-VAZ040>042-051-053>054-261600-
WASHINGTON METRO

CITY           SKY/WX    TMP DP  RH WIND       PRES   REMARKS
WASHINGTON NAT MOSUNNY   78  63  59 CALM      30.21S
DULLES         PTSUNNY   76  62  62 CALM      30.22S
ANDREWS AFB    SUNNY     77  63  62 CALM      30.20S
FT BELVOIR     SUNNY     81  62  51 E3        30.20F
QUANTICO       MOSUNNY   79  65  62 CALM      30.21S
COLLEGE PARK*  PTSUNNY   77  64  64 CALM      30.20F
LEESBURG*      PTSUNNY   75  66  73 NE3       30.23S
MANASSAS*      SUNNY     77  64  64 NW3       30.22S
GAITHERSBURG*  MOSUNNY   75  64  68 CALM      30.24S

$$

MDZ006>007-011-014-261600-
BALTIMORE METRO

CITY           SKY/WX    TMP DP  RH WIND       PRES   REMARKS
BWI AIRPORT    PTSUNNY   74  66  76 NE5       30.21F
MD SCIENCE CTR   N/A     74  67  78 MISG      30.22F
MARTIN STATE   MOSUNNY   73  70  88 E7        30.22F
ANNAPOLIS      PTSUNNY   76  71  85 E8        30.20F
FORT MEADE*    PTSUNNY   73  64  73 CALM      30.23F

$$

MDZ012-015-019>023-261600-
MARYLAND EASTERN SHORE

CITY           SKY/WX    TMP DP  RH WIND       PRES   REMARKS
OCEAN CITY     LGT RAIN  71  67  87 E6        30.22R
SALISBURY      CLOUDY    78  67  68 NE7       30.21R
BAY BRIDGE AP* CLOUDY    77  66  69 SE8       30.22R
CAMBRIDGE*     PTSUNNY   77  66  69 NE5       30.21R
EASTON*        PTSUNNY   77  66  69 E6        30.26R

$$

MDZ017>025-261600-
SOUTHERN MARYLAND

CITY           SKY/WX    TMP DP  RH WIND       PRES   REMARKS
PATUXENT RIVER PTSUNNY   78  68  71 VRB6      30.21R
ST INIGOES     PTSUNNY   78  69  73 E5        30.20R
LEONARDTOWN*   CLOUDY    73  66  78 E3        30.23R

$$

MDZ003>005-261600-
NORTH CENTRAL MARYLAND

CITY           SKY/WX    TMP DP  RH WIND       PRES   REMARKS
FREDERICK*     PTSUNNY   73  64  73 CALM      30.25F
HAGERSTOWN APT MOSUNNY   73  60  63 SW5       30.22F
WESTMINSTER*   CLOUDY    75  64  69 CALM      30.23S

$$

MDZ501>502-261600-
WESTERN MARYLAND

CITY           SKY/WX    TMP DP  RH WIND       PRES   REMARKS
OAKLAND*       SUNNY     64  59  82 SE8       30.22S
CUMBERLAND*    MOSUNNY   70  64  83 S5        30.26S

$$

VAZ025>031-261600-
SHENANDOAH VALLEY

CITY           SKY/WX    TMP DP  RH WIND       PRES   REMARKS
WINCHESTER*    PTSUNNY   72  61  68 SE5       30.22F
FRONT ROYAL*   MOSUNNY   73  61  64 E3        30.21F
LURAY*         SUNNY     73  61  64 SW6       30.23S
NEW MARKET*    PTSUNNY   76  59  55 S3        30.22R
STAUNTON*      CLOUDY    73  59  62 SW5       30.26S
WAYNESBORO*    CLOUDY    73  62  68 CALM      30.25S

$$

WVZ021-048>050-054>055-261600-
EASTERN WEST VIRGINIA PANHANDLE

CITY           SKY/WX    TMP DP  RH WIND       PRES   REMARKS
MARTINSBURG    PTSUNNY   74  60  61 E7        30.21F
PETERSBURG*    SUNNY     74  62  65 E5        30.21F

$$

VAZ036>039-050-261600-
CENTRAL FOOTHILLS

CITY           SKY/WX    TMP DP  RH WIND       PRES   REMARKS
CHARLOTTESVILL MOSUNNY   77  61  57 S5        30.22F
CULPEPER*      MOSUNNY   77  62  58 CALM      30.22S
ORANGE*        SUNNY     75  61  60 CALM      30.21F
GORDONSVILLE*  MOSUNNY   76  62  62 CALM      30.21S
WARRENTON*     MOSUNNY   79  58  48 CALM      30.21S

$$

VAZ055>057-261600-
NORTH AND CENTRAL PIEDMONT

CITY           SKY/WX    TMP DP  RH WIND       PRES   REMARKS
FREDERICKSBRG* SUNNY     78  67  67 CALM      30.20S
STAFFORD*      PTSUNNY   76  66  71 CALM      30.24F

$$

NCZ024-NYZ072-PAZ021-071-VAZ022-071-261600-
OTHER REGIONAL OBSERVATIONS

CITY           SKY/WX    TMP DP  RH WIND       PRES   REMARKS
NEW YORK CITY  SUNNY     73  55  53 VRB6      30.27F
PHILADELPHIA   CLOUDY    75  63  66 E7        30.24S
PITTSBURGH     MOSUNNY   72  59  63 SE3       30.20R
ROANOKE        CLOUDY    72  60  66 SE6       30.26F
RICHMOND       MOSUNNY   79  66  64 SW3       30.20F
RALEIGH        MOSUNNY   82  64  54 VRB5      30.21R

$$

ANZ530>537-261600-
MARINE OBSERVATIONS

STATION/POSITION TIME  TEMP    WIND        PRES
                       AIR SEA DIR/SP/G
                 (UTC) (F)     (DEG/KT/KT) (MB)
THOMAS PT LIGHT  1500   74 81  110/  6/  8   N/A
BALT KEY BRIDGE  1448   72     140/  3/  7 1022.9F
COVE POINT       1448   75     110/  3/  5 1023.6R
LEWISETTA        1448   77 83  120/  3/  5 1022.7R
SOLOMONS ISLAND  1448   75 84   80/  7/  9   N/A
PINEY POINT      1448          140/  4/  5   N/A

$$




USA.gov is the U.S. government's official web portal to all federal, state and local government web resources and services.